This is the latest recevied weather packets stored in our database for station/object WD7CGF. If no packets are shown the sender has not sent any weather packets the latest 10 day(s).
| Time | Temp. | Humidity | Pressure | Rain* | Wind** | Luminosity | Snow |
|---|---|---|---|---|---|---|---|
| 1777677506 | 24.44° C | 35% | 1013 hPa | 0 mm | - | - | - |
| 1777676893 | 24.44° C | 34% | 1013.9 hPa | 0 mm | - | - | - |
| 1777676302 | 23.89° C | 36% | 1013.4 hPa | 0 mm | - | - | - |
| 1777675691 | 23.89° C | 37% | 1013.4 hPa | 0 mm | - | - | - |
| 1777675096 | 23.89° C | 35% | 1013.6 hPa | 0 mm | - | - | - |
| 1777674503 | 23.89° C | 36% | 1013.8 hPa | 0 mm | - | - | - |
| 1777673903 | 23.89° C | 36% | 1013.8 hPa | 0 mm | - | - | - |
| 1777673308 | 23.89° C | 34% | 1014.9 hPa | 0 mm | - | - | - |
| 1777672696 | 24.44° C | 34% | 1015 hPa | 0 mm | - | - | - |
| 1777672103 | 23.89° C | 36% | 1015 hPa | 0 mm | - | - | - |
| 1777671503 | 23.89° C | 37% | 1014.3 hPa | 0 mm | - | - | - |
| 1777670907 | 23.33° C | 35% | 1014.6 hPa | 0 mm | - | - | - |
| 1777670299 | 23.33° C | 36% | 1014.6 hPa | 0 mm | - | - | - |
| 1777669690 | 23.33° C | 35% | 1015.4 hPa | 0 mm | - | - | - |
| 1777669099 | 23.33° C | 38% | 1015.5 hPa | 0 mm | - | - | - |
| 1777668506 | 23.89° C | 33% | 1015.5 hPa | 0 mm | - | - | - |
| 1777667895 | 23.89° C | 35% | 1015.8 hPa | 0 mm | - | - | - |
| 1777667306 | 23.33° C | 34% | 1016 hPa | 0 mm | - | - | - |
| 1777666692 | 23.33° C | 35% | 1016 hPa | 0 mm | - | - | - |
| 1777666100 | 22.78° C | 32% | 1016.1 hPa | 0 mm | - | - | - |
| 1777665487 | 22.78° C | 35% | 1016.4 hPa | 0 mm | - | - | - |
| 1777664893 | 22.78° C | 36% | 1016.4 hPa | 0 mm | - | - | - |
| 1777664301 | 22.22° C | 33% | 1015.7 hPa | 0 mm | - | - | - |
| 1777663693 | 21.67° C | 42% | 1015.7 hPa | 0 mm | - | - | - |
| 1777663100 | 21.67° C | 39% | 1015.7 hPa | 0 mm | - | - | - |
* Rain since midnight (hover to see other rain measurements)
** Current wind speed in m/s (hover to see current wind gust speed)